Regional Weather Roundup
Issued by NWS

Home | Current Version | Previous Version | Graphics & Text | Print | Product List | Glossary On
Versions: 1 2 3 4 5 6 7 8 9 10 11 12 13 14 15 16 17 18 19 20 21 22 23 24 25 26 27 28 29 30 31 32 33 34 35 36 37 38 39 40 41 42 43 44 45 46 47 48 49 50
000
ASUS43 KIND 240009
RWRIN

WEATHER ROUNDUP FOR INDIANA
NATIONAL WEATHER SERVICE INDIANAPOLIS IN
700 PM EST THU FEB 23 2017

NOTE: "FAIR" INDICATES FEW OR NO CLOUDS BELOW 12,000 FEET WITH NO
SIGNIFICANT WEATHER AND/OR OBSTRUCTIONS TO VISIBILITY.

* - STATION DOES NOT REPORT WEATHER SUCH AS PRECIPITATION OR FOG.

+ - STATION NOT QUALITY CONTROLLED BY THE NATIONAL WEATHER SERVICE.
    USE DATA WITH CAUTION...ESPECIALLY DEWPOINT AND RELATIVE
    HUMIDITY OBSERVATIONS.

INZ001>003-010>013-019-020-240100-
NORTHWEST INDIANA

CITY           SKY/WX    TMP DP  RH WIND       PRES   REMARKS
GARY /AIRPORT/ LGT RAIN  39  37  93 N7        29.82F
KNOX *+        CLOUDY    43  28  56 N9        29.77S
LA PORTE +     LGT RAIN  38  37  95 N8        29.79S
6HR MIN TEMP:  38; 6HR MAX TEMP:  48; 6HR PCP:  0.01;

MICHIGAN CITY+ LGT RAIN  36  36 100 N8        29.80S
MONTICELLO +   CLOUDY    52  45  76 NE8       29.73R
6HR MIN TEMP:  52; 6HR MAX TEMP:  62;

RENSSELAER +   CLOUDY    45  41  87 NE14      29.74S
VALPARAISO     LGT RAIN  39  38  96 N7        29.80R
6HR MIN TEMP:  39; 6HR MAX TEMP:  49; 6HR PCP:  0.01;


$$

LMZ046-743>745-240100-
SOUTHERN LAKE MICHIGAN

STATION/POSITION TIME  TEMP    WIND        PRES    WAVE
                       AIR SEA DIR/SP/G            HT
                 (UTC) (F)     (DEG/KT/KT) (MB)    (FT)
BURNS HARBOR     2340   37      30/ 13/ 15 1009.5F
MICHIGAN CITY    2340   36     360/ 12/ 14   N/A

$$

INZ004-005-014>016-021>024-240100-
NORTH CENTRAL INDIANA

CITY           SKY/WX    TMP DP  RH WIND       PRES   REMARKS
ELKHART        PTCLDY    46  41  81 NE6       29.76F
GOSHEN         LGT RAIN  50  42  74 N8        29.77R
6HR MIN TEMP:  50; 6HR MAX TEMP:  60; 6HR PCP: TRACE;

LOGANSPORT +   MOCLDY    54  46  76 N8        29.74S
PERU/GRISSOM   CLOUDY    56  56  97 NE3       29.72S
6HR MIN TEMP:  56; 6HR MAX TEMP:  65;

ROCHESTER +    CLOUDY    54  45  71 NE7       29.75S
SOUTH BEND     LGT RAIN  42  38  85 N9        29.77F
6HR MIN TEMP:  42; 6HR MAX TEMP:  50; 6HR PCP: TRACE;

WARSAW +       CLOUDY    52  45  76 N6        29.77S

$$

INZ006>009-017-018-025>027-240100-
NORTHEAST INDIANA

CITY           SKY/WX    TMP DP  RH WIND       PRES   REMARKS
ANGOLA *+      PTCLDY    54  46  76 N3        29.77R
AUBURN +       CLOUDY    57  45  62 N3        29.77R
FORT WAYNE     CLOUDY    57  51  80 SE6       29.74S
6HR MIN TEMP:  57; 6HR MAX TEMP:  66;

HUNTINGTON +   CLOUDY    56  54  90 CALM      29.74S
6HR MIN TEMP:  56; 6HR MAX TEMP:  65;

KENDALLVILLE + MOCLDY    53  46  76 N5        29.77R

$$

INZ028-029-035-036-043>045-051>053-240100-
WEST CENTRAL INDIANA

CITY           SKY/WX    TMP DP  RH WIND       PRES   REMARKS
LAFAYETTE      CLOUDY    55  48  77 NE8       29.71S
6HR MIN TEMP:  55; 6HR MAX TEMP:  62;

TERRE HAUTE    PTCLDY    64  54  69 SE9       29.68F
6HR MIN TEMP:  64; 6HR MAX TEMP:  72;


$$

INZ030>032-037>040-046>048-054>057-064-065-240100-
CENTRAL INDIANA

CITY           SKY/WX    TMP DP  RH WIND       PRES   REMARKS
CP ATTERBURY + MOCLDY    63  54  72 SE5       29.74S
COLUMBUS       MOCLDY    63  57  82 SE7       29.74S
FRANKFORT +    MOCLDY    61  56  84 E8        29.73F
6HR MIN TEMP:  61; 6HR MAX TEMP:  66;

GREENWOOD *+   CLOUDY    65  56  72 S6        29.74S
6HR MIN TEMP:  65; 6HR MAX TEMP:  70;

INDIANAPOLIS   CLOUDY    65  53  65 S8        29.71S
6HR MIN TEMP:  64; 6HR MAX TEMP:  70;

-EAGLE CREEK   MOCLDY    64  53  67 E6        29.70F
6HR MIN TEMP:  64; 6HR MAX TEMP:  69;

KOKOMO +       CLOUDY    56  53  90 E6        29.74S
6HR MIN TEMP:  56; 6HR MAX TEMP:  64;

MARION +       CLOUDY    57  53  87 E6        29.74F
MT COMFORT *+  CLOUDY    61  54  77 S6        29.74S
SHELBYVILLE    CLOUDY    64  54  69 S7        29.73S
6HR MIN TEMP:  64; 6HR MAX TEMP:  70;

ZIONSVILLE +   CLOUDY    59  54  84 E9        29.72F
6HR MIN TEMP:  59; 6HR MAX TEMP:  66;


$$

INZ033-034-041-042-049-050-058-059-240100-
EAST CENTRAL INDIANA

CITY           SKY/WX    TMP DP  RH WIND       PRES   REMARKS
MUNCIE         CLOUDY    59  53  80 E5        29.74S
6HR MIN TEMP:  59; 6HR MAX TEMP:  65;


$$

INZ060-061-067>069-081>083-085>088-240100-
SOUTHWEST INDIANA

CITY           SKY/WX    TMP DP  RH WIND       PRES   REMARKS
EVANSVILLE     PTCLDY    67  53  61 S6        29.69S
6HR MIN TEMP:  67; 6HR MAX TEMP:  74;

HUNTINGBURG *+ CLOUDY    63  55  77 SE8       29.70F
6HR MIN TEMP:  63; 6HR MAX TEMP:  72;

WASHINGTON +   PTCLDY    61  54  75 SE6       29.69S
6HR MIN TEMP:  61; 6HR MAX TEMP:  70;


$$

INZ062-063-066-070>080-084-089>092-240100-
SOUTH CENTRAL AND SOUTHEAST INDIANA

CITY           SKY/WX    TMP DP  RH WIND       PRES   REMARKS
BLOOMINGTON    MOCLDY    62  52  69 E5        29.71F
6HR MIN TEMP:  62; 6HR MAX TEMP:  71;

MADISON *+     CLOUDY    64  54  68 SE3       29.78R
SEYMOUR +      CLOUDY    64  55  72 SE7       29.74R

$$




USA.gov is the U.S. government's official web portal to all federal, state and local government web resources and services.